Regional Weather Roundup
Issued by NWS Charleston, SC

Home | Current Version | Previous Version | Text Only | Print | Product List | Glossary On
Versions: 1 2 3 4 5 6 7 8 9 10 11 12 13 14 15 16 17 18 19 20 21 22 23 24 25 26 27 28 29 30 31 32 33 34 35 36 37 38 39 40 41 42 43 44 45 46 47 48 49 50
000
ASUS42 KCHS 270227
RWRCHS

REGIONAL WEATHER ROUNDUP
NATIONAL WEATHER SERVICE CHARLESTON SC
1000 PM EDT WED JUL 26 2017

NOTE: "FAIR" INDICATES FEW OR NO CLOUDS BELOW 12,000 FEET WITH NO
SIGNIFICANT WEATHER AND/OR OBSTRUCTIONS TO VISIBILITY.

NOT ALL STATIONS ARE QUALITY CONTROLLED. USE DATA WITH CAUTION...
ESPECIALLY DEWPOINT OBSERVATIONS.

SCZ027-030-031-034>040-042>050-270300-
...SOUTHEAST SOUTH CAROLINA...

CITY           SKY/WX    TMP DP  RH WIND       PRES   REMARKS
N CHARLESTON   CLOUDY    79  74  84 E6        30.07S
WATERFRONT PRK   N/A     81  77  88 E8        30.05S
JOHNS ISLAND   FAIR      79  75  89 CALM      30.08R
PINOPOLIS        N/A     79  75  89 VRB2      30.01S
MONCKS CORNER  FAIR      75  73  94 CALM      30.09R
SUMMERVILLE    FAIR      77  73  88 CALM      30.09S
BEAUFORT MCAS  MOCLDY    80  75  84 E7        30.07S
BEAUFORT ARPT  FAIR      77  73  88 CALM      30.07R
HILTON HEAD IS PTCLDY    81  73  78 VRB5      30.08R
WALTERBORO     MOCLDY    77  73  88 SE3       30.08S
ALLENDALE      NOT AVBL

...SOUTHERN MIDLANDS AND PEE DEE...

CITY           SKY/WX    TMP DP  RH WIND       PRES   REMARKS
GEORGETOWN     FAIR      77  75  94 E3        30.10R
KINGSTREE      FAIR      73  72  94 CALM      30.09S
ORANGEBURG     CLOUDY    76  74  93 CALM      30.09R
BARNWELL       FAIR      79  77  94 CALM      30.08S
AIKEN          FAIR      73  72  94 CALM      30.13R
MANNING        FAIR      75  75 100 CALM      30.10R
COLUMBIA       PTCLDY    80  73  79 E6        30.08R
SUMTER         CLEAR     78  72  82 CALM      30.07R
FLORENCE       CLEAR     78  74  87 S3        30.10R
MYRTLE BEACH   PTCLDY    81  73  78 E10       30.10R
N MYRTLE BEACH PTCLDY    80  73  79 E8        30.08S

$$

GAZ063-065-086>088-099>101-113>116-118-119-134>141-150-270300-
...SOUTHEAST GEORGIA...

CITY           SKY/WX    TMP DP  RH WIND       PRES   REMARKS
SAVANNAH ARPT  PTCLDY    78  72  81 E3        30.07R
HUNTER AAF     PTCLDY    77  73  85 CALM      30.04R
FORT STEWART   CLOUDY    77  73  88 SE3       30.05R
STATESBORO     CLOUDY    77  77 100 CALM      30.08R
SYLVANIA       CLOUDY    76  76 100 CALM      30.09R
CLAXTON        FAIR      77  76  95 CALM      30.07R

...CSRA...CENTRAL AND FAR SOUTHEAST GEORGIA...

CITY           SKY/WX    TMP DP  RH WIND       PRES   REMARKS
THOMSON        CLEAR     74  73  96 CALM      30.14R
AUGUSTA-BUSH   CLOUDY    77  75  93 CALM      30.07R
AUGUSTA-DANIEL CLEAR     77  72  84 CALM      30.09R
SWAINSBORO     FAIR      77  75  94 E3        30.08S
VIDALIA        CLOUDY    79  75  89 CALM      30.07S
EASTMAN        FAIR      78  74  87 CALM      30.08F
HAZLEHURST     FAIR      77  77 100 CALM      30.06S
ALMA           CLOUDY    76  74  93 CALM      30.05S
WAYCROSS       CLOUDY    78  78 100 E3        30.06R
JESUP          NOT AVBL
BAXLEY         FAIR      77  77 100 CALM      30.07R
BRUNSWICK      CLOUDY    77  77 100 E5        30.07R
SAINT SIMONS   CLOUDY    79  76  90 E7        30.05R

$$

SCZ027-028-034-036>038-045-046-048>050-GAZ119-141-270300-
...LAKE AND SUPPLEMENTAL COASTAL OBSERVATIONS...

STATION/POSITION TIME  TEMP    WIND        PRES    WAVE   SWELL
                       AIR SEA DIR/SP/G            HT/PER HT/PER/DIR
                 (UTC) (F)     (DEG/KT/KT) (MB)    (FT/S) (FT/S/D)
WINYAH BAY       0145   80      90/  8     1019.0R
LAKE MURRAY      0220   80     120/  4/  8 1017.6F
ACE BASIN NERRS  0130   78      70/  1     1018.0S
FORT PULASKI     0200   80 85  130/  5/  7 1018.4
SAPELO ISLAND    0200   76        CALM     1018.0

$$

ANZ835-935-AMZ111-154-330-350-352-354-370-450-454-472-270300-
...C-MAN AND BUOY OBSERVATIONS...

STATION/POSITION TIME  TEMP    WIND        PRES    WAVE   SWELL
                       AIR SEA DIR/SP/G            HT/PER HT/PER/DIR
                 (UTC) (F)     (DEG/KT/KT) (MB)    (FT/S) (FT/S/D)
BUOY 41004       0210   80 83  130/  4/  4 1017.6
BUOY 41008       0150   76 81  100/  6/  8 1017.7R   2/ 3   2/160/ 9
FOLLY BEACH CMAN 0200   81      80/  7/  8 1018.7F
CAPERS NEARSHORE 0208   78 84  110/  8/ 10 1018.1R
FRIPP NEARSHORE  0208   80 83  100/ 10/ 12 1017.7R


STATION/POSITION TIME  TEMP    WIND        PRES    WAVE   SWELL
                       AIR SEA DIR/SP/G            HT/PER HT/PER/DIR
                 (UTC) (F)     (DEG/KT/KT) (MB)    (FT/S) (FT/S/D)
5E ST. MARYS GA  0200      79                N/A     2/11
FRYING PAN BUOY  0210   82 82   70/ 16/ 19 1018.1
BUOY 41025       0150   80 83   60/ 10/ 12 1019.3R   3/ 7   3/ 40/ 7
CAPE LOOKOUT NC  0200   79      80/ 11/ 13 1019.1R
BUOY 41002       0150   81 83  170/  8/ 10 1017.9R   3/10   2/ 90/10
BUOY 41010       0210   85 85  140/  6/  8 1017.9
ST AUGUSTINE FL  0200   79 76   CALM  /  1 1017.7R


$$



USA.gov is the U.S. government's official web portal to all federal, state and local government web resources and services.